Showing default

KUIPER-00094, 64839

Orbit data source: Space-Track

KUIPER-00094, 64839 is a payload satellite owned by Kuiper Systems (US) in LEO that was launched on Wed, 16 Jul 2025 UTC via an FALCON 9 launch vehicle from the Air Force Eastern Test Range (AFETR). Payload-class satellites include a variety of spacecraft equipped with specific instruments for various scientific and technological missions. These include communications satellites like Starlink; space stations such as the ISS; scientific satellites like the Hubble; Earth observation satellites from companies like Planet Labs, Umbra, and HawkEye 360; GPS; miniature CubeSats for education and research; and military/defense satellites.

Loading next visibility...
Identifier
64839, 2025-151Z
Orbit
LEO
Country
Flag of USUS
Related business
Manufacturer
Kuiper Systems
Mission
Operational Commercial Communications
Bus & Motor
KUIPER, Unknown motor
Mass
~490 kg wet, ~490 kg dry
Launch date (UTC)
2025-07-16 (11 months ago)
Launch vehicle
FALCON 9
Launch site
Air Force Eastern Test Range (AFETR)
Object type
Payload
Rocket body
Debris
Shape & HBR
Box + 2 Pan, 3.4 m
Radar Cross Section
2.326 m², Large (>1 m²)

Expand to show TLE details & history
Last TLE update: 1 day ago

TLE from 1 day ago
0 KUIPER-00094
1 64839U 25151Z   26166.22833736  .00001587  00000-0  23867-3 0  9999
2 64839  51.9022 176.8391 0002412  25.9405 334.1678 14.79653906 50489
Epoch: 2026-06-15T05:28Z
TLE epoch observation values (Epoch: 2026-06-15T05:28:48.347Z)
Latitude
-0.00002°
Longitude
-168.8801°
Altitude
629.642 km
Speed
7.546 km/s
True Right ascension
11h 47m 21s
True Declination
0° 00' 00"
Sunlit
Object was in daylight at epoch
Visualization orbit readout
Latitude
Unknown
Longitude
Unknown
Altitude
Unknown
Speed
Unknown
Apparent Right ascension
Unknown
Apparent Declination
Unknown
Sunlit
N/A
Visualization observer readout
Local Sidereal Time
15:50:29
Azimuth
Unknown
Elevation
Unknown
Doppler factor
Unknown
Orbital elements
Apogee altitude
632.558 km
Perigee altitude
629.177 km
Semi-major axis
7,009.005 km
Eccentricity
0.00024
Inclination
51.9022°
RAAN
176.8391°
Arg. of periapsis
25.9405°
True anomaly
334.15575°
Mean anomaly
334.1678°
Eccentric anomaly
334.16178°
Mean motion
3.69878 °/min
Orbital period
97.33 mins
BSTAR
0.00023867
Loading maneuver chart data...
Computing Atmospheric mass density...
Loading historical data...
Loading historical data...
Loading historical data...
Loading historical data...
Loading historical data...
Loading historical data...
Loading historical data...

Documentation

Showing up to 5 results
|